Time,TemperatureF,DewpointF,PressureIn,WindDirection,WindDirectionDegrees,WindSpeedMPH,WindSpeedGustMPH,Humidity,HourlyPrecipIn,Conditions,Clouds,dailyrainin,SoftwareType,DateUTC
2013-08-28 21:47:00,80.0,71.0,29.92,NE,55,0.6,0.6,74,0.00,,,0.00,TxWx,2013-08-29 02:47:00,
2013-08-28 21:48:00,79.9,71.0,29.92,NE,55,0.0,0.6,75,0.00,,,0.00,TxWx,2013-08-29 02:48:00,
2013-08-28 21:49:00,79.9,71.0,29.92,ENE,77,0.6,0.6,75,0.00,,,0.00,TxWx,2013-08-29 02:49:00,
2013-08-28 21:50:00,79.9,71.0,29.92,NE,55,0.0,0.6,74,0.00,,,0.00,TxWx,2013-08-29 02:50:00,
2013-08-28 21:52:00,79.8,71.0,29.92,NE,55,0.0,0.6,75,0.00,,,0.00,TxWx,2013-08-29 02:52:00,
2013-08-28 21:57:00,79.7,71.0,29.92,SE,145,0.6,1.2,75,0.00,,,0.00,TxWx,2013-08-29 02:57:00,
2013-08-28 22:02:00,79.6,72.0,29.92,NE,55,0.6,0.6,76,0.00,,,0.00,TxWx,2013-08-29 03:02:00,
2013-08-28 22:06:00,79.5,71.0,29.92,NNE,32,0.0,0.6,76,0.00,,,0.00,TxWx,2013-08-29 03:06:00,
2013-08-28 22:11:00,79.3,71.0,29.92,NE,55,0.0,0.6,76,0.00,,,0.00,TxWx,2013-08-29 03:11:00,
2013-08-28 22:16:00,79.1,71.0,29.92,NE,55,0.0,0.6,76,0.00,,,0.00,TxWx,2013-08-29 03:16:00,
2013-08-28 22:21:00,79.0,71.0,29.92,ENE,77,0.0,0.6,76,0.00,,,0.00,TxWx,2013-08-29 03:21:00,
2013-08-28 22:26:00,79.0,71.0,29.92,NNE,32,0.0,0.6,76,0.00,,,0.00,TxWx,2013-08-29 03:26:00,
2013-08-28 22:31:00,78.9,71.0,29.92,NE,55,0.6,1.2,77,0.00,,,0.00,TxWx,2013-08-29 03:31:00,
2013-08-28 22:36:00,78.8,71.0,29.92,NE,55,0.6,0.6,77,0.00,,,0.00,TxWx,2013-08-29 03:36:00,
2013-08-28 22:41:00,78.7,71.0,29.92,NNE,32,0.0,0.6,78,0.00,,,0.00,TxWx,2013-08-29 03:41:00,
2013-08-28 22:46:00,78.5,72.0,29.92,NNE,32,0.0,0.6,78,0.00,,,0.00,TxWx,2013-08-29 03:46:00,
2013-08-28 22:52:00,78.4,71.0,29.92,NE,55,0.6,0.6,79,0.00,,,0.00,TxWx,2013-08-29 03:52:00,
2013-08-28 22:57:00,78.2,71.0,29.92,SSW,212,0.0,0.6,80,0.00,,,0.00,TxWx,2013-08-29 03:57:00,
2013-08-28 23:01:00,78.1,71.0,29.92,NNE,32,0.0,0.0,80,0.00,,,0.00,TxWx,2013-08-29 04:01:00,
2013-08-28 23:02:00,78.0,71.0,29.92,ENE,77,0.0,0.6,80,0.00,,,0.00,TxWx,2013-08-29 04:02:00,
2013-08-28 23:03:00,78.0,71.0,29.92,East,100,0.6,0.6,80,0.00,,,0.00,TxWx,2013-08-29 04:03:00,
2013-08-28 23:08:00,78.0,71.0,29.92,North,10,0.6,1.9,80,0.00,,,0.00,TxWx,2013-08-29 04:08:00,
2013-08-28 23:10:00,78.0,71.0,29.92,NE,55,0.6,1.2,80,0.00,,,0.00,TxWx,2013-08-29 04:10:00,
2013-08-28 23:15:00,77.9,71.0,29.92,SW,235,1.9,1.9,80,0.00,,,0.00,TxWx,2013-08-29 04:15:00,
2013-08-28 23:20:00,77.9,71.0,29.92,East,100,0.0,0.6,80,0.00,,,0.00,TxWx,2013-08-29 04:20:00,
2013-08-28 23:24:00,77.8,71.0,29.92,WSW,257,0.6,1.2,81,0.00,,,0.00,TxWx,2013-08-29 04:24:00,
2013-08-28 23:25:00,77.8,71.0,29.92,ESE,122,1.2,1.9,81,0.00,,,0.00,TxWx,2013-08-29 04:25:00,
2013-08-28 23:30:00,77.8,71.0,29.93,NE,55,0.0,1.2,81,0.00,,,0.00,TxWx,2013-08-29 04:30:00,
2013-08-28 23:35:00,77.7,72.0,29.93,ESE,122,0.6,0.6,81,0.00,,,0.00,TxWx,2013-08-29 04:35:00,
2013-08-28 23:40:00,77.6,72.0,29.93,NNE,32,0.0,0.6,81,0.00,,,0.00,TxWx,2013-08-29 04:40:00,
2013-08-28 23:45:00,77.6,72.0,29.93,NE,55,0.6,1.2,81,0.00,,,0.00,TxWx,2013-08-29 04:45:00,
2013-08-28 23:50:00,77.5,72.0,29.93,SSE,167,0.6,1.9,81,0.00,,,0.00,TxWx,2013-08-29 04:50:00,
2013-08-28 23:55:00,77.5,72.0,29.93,NNE,32,0.6,0.6,81,0.00,,,0.00,TxWx,2013-08-29 04:55:00,